Regional Weather Roundup
Issued by NWS Sioux Falls, SD

Home | Current Version | Previous Version | Text Only | Print | Product List | Glossary Off
Versions: 1 2 3 4 5 6 7 8 9 10 11 12 13 14 15 16 17 18 19 20 21 22 23 24 25 26 27 28 29 30 31 32 33 34 35 36 37 38 39 40 41 42 43 44 45 46 47 48 49 50

000
ASUS43 KFSD 301002
RWRFSD

WEATHER ROUNDUP FOR SE SOUTH DAKOTA/SW MINNESOTA/NW IOWA
NATIONAL WEATHER SERVICE SIOUX FALLS SD
500 AM CDT TUE AUG 30 2016

NOTE: "FAIR" INDICATES FEW OR NO CLOUDS BELOW 12,000 FEET WITH NO
SIGNIFICANT WEATHER AND OR OBSTRUCTIONS TO VISIBILITY.


SDZ038>040-050-052>070-301100-
SOUTHEAST SOUTH DAKOTA

CITY           SKY/WX    TMP DP  RH WIND       PRES   REMARKS
CHAMBERLAIN    MOCLDY    68  67  95 NE3       30.17S
HURON          PTCLDY    70  68  93 E9        30.18R
MADISON        CLOUDY    66  66 100 NE7       30.21S
MITCHELL       CLOUDY    68  67  96 E5        30.18R
SIOUX FALLS    CLOUDY    68  66  93 CALM      30.19S
WINNER         FAIR      67  63  87 CALM      30.17S
YANKTON        CLOUDY    66  63  88 E6        30.17R
$$

MNZ071-072-080-081-089-090-097-098-301100-
SOUTHWEST MINNESOTA

CITY           SKY/WX    TMP DP  RH WIND       PRES   REMARKS
FAIRMONT       CLOUDY    67  65  93 N8        30.23R
JACKSON        RAIN      68  64  88 NE13      30.24R
LUVERNE        CLOUDY    68  63  83 CALM      30.21R
MARSHALL       CLOUDY    70  68  93 N3        30.22R THUNDER
MONTEVIDEO     CLOUDY    66  64  94 N5        30.21S
PIPESTONE        N/A     70  66  88 E3        30.22R
REDWOOD FALLS  CLOUDY    67  64  90 S13       30.16F
TRACY          CLOUDY    68  66  93 E6        30.22R
WINDOM         CLOUDY    66  64  94 E9        30.22F
WORTHINGTON    CLOUDY    70  68  93 N9        30.23R
$$

IAZ001>003-012>014-020>022-031-032-NEZ013-014-SDZ071-301100-
NORTHWEST IOWA

CITY           SKY/WX    TMP DP  RH WIND       PRES   REMARKS
CHEROKEE       CLOUDY    66  66 100 CALM      30.19R
DENISON        CLOUDY    66  66 100 CALM      30.16R
ESTHERVILLE    CLOUDY    68  67  96 NE15G24   30.21R
LE MARS        CLOUDY    66  66 100 CALM      30.19R
ORANGE CITY    MOCLDY    68  66  94 NE6       30.20R
SHELDON        MOCLDY    66  66 100 CALM      30.19R
SIOUX CITY     CLOUDY    68  66  93 E3        30.18R
SPENCER        PTCLDY    64  62  93 CALM      30.19S
STORM LAKE     MOCLDY    66  66 100 CALM      30.19R FOG
$$

ABBREVIATIONS USED IN REMARKS
   TC - TEMPERATURE IN CELSIUS
  WCI - WIND CHILL INDEX
   HX - HEAT INDEX
  VSB - VISIBILITY




USA.gov is the U.S. government's official web portal to all federal, state and local government web resources and services.